[[{"header":{"parameterUnit":"m.s-1","parameterCategory":2,"la1":30.2992,"la2":30.254,"lo1":-89.0895,"lo2":-89.0443,"dy":0.0025,"dx":0.0025,"nx":19,"ny":19,"refTime":"2026-05-16T03:00:00:Z","depth":"0","parameterNumber":2,"parameterNumberName":"U-component_of_CURRENTS"},"data":[0,0,0,0.3524,0.3528,0.3683,0.3684,0.3902,0.3904,0,0,0,0,0,0,0,0,0,0,0,0.3466,0.3466,0.3524,0.3528,0.3683,0.3684,0.3902,0.3904,0,0,0,0,0,0,0,0,0,0,0,0.3465,0.3466,0.3467,0.3529,0.3683,0.3684,0.3901,0.3779,0,0,0,0,0,0,0,0,0,0,0.3626,0.3564,0.3466,0.3467,0.3529,0.3683,0.3684,0.3773,0.3787,0.3837,0,0.3861,0,0.3892,0.3919,0.392,0,0,0,0.3529,0.3552,0.3601,0.3468,0.3531,0.3682,0.3613,0.3781,0.3796,0.3856,0.3864,0.3873,0.3896,0.3921,0.3922,0.4192,0.4194,0,0,0.352,0.3491,0.359,0.361,0.3572,0.3608,0.3618,0.379,0.3804,0.3865,0.3878,0.3899,0.3922,0.3924,0.4191,0.4193,0,0,0,0.3495,0.3485,0.3529,0.3601,0.3631,0.3613,0.3624,0.3796,0.3812,0.388,0.3902,0.3923,0.3926,0.419,0.4192,0.4274,0,0,0,0.349,0.3471,0.3525,0.3509,0.3627,0.3712,0.3626,0.38,0.3821,0.3901,0.3924,0.3928,0.4188,0.4191,0.4269,0.4394,0,0,0,0.3458,0.3467,0.3486,0.3507,0.3575,0.371,0.3736,0.3805,0.3834,0.392,0.3929,0.4187,0.419,0.4264,0.4384,0.4476,0,0,0,0.3421,0.346,0.3486,0.3549,0.3573,0.3717,0.3735,0.3813,0.3881,0.3925,0.4188,0.4192,0.4262,0.4377,0.4469,0.4419,0.4447,0,0,0.345,0.3463,0.3505,0.3532,0.365,0.3696,0.3858,0.3918,0.3955,0.413,0.4137,0.427,0.4383,0.4475,0.4595,0.4617,0,0,0,0.3502,0.353,0.3578,0.3647,0.3747,0.3893,0.3943,0.4028,0.4174,0.4013,0.431,0.4381,0.4434,0.439,0.4409,0.4299,0.4206,0.4205,0.4205,0.3489,0.355,0.3652,0.3754,0.386,0.4014,0.4165,0.4296,0.4264,0.4348,0.4472,0.4648,0.4601,0.4615,0.4502,0.4454,0.4454,0.4455,0.4455,0.3571,0.3658,0.3741,0.3862,0.4008,0.416,0.4427,0.4455,0.4712,0.4633,0.4676,0.4513,0.464,0.4512,0.4461,0.446,0.4459,0.4458,0.4458,0.3589,0.3656,0.371,0.3886,0.4072,0.4266,0.4515,0.4682,0.484,0.4937,0.4851,0.4848,0.4716,0.4912,0.4913,0.4914,0.4914,0.4915,0.4916,0.362,0.3686,0.3767,0.3936,0.4023,0.423,0.4568,0.4753,0.4969,0.5028,0.5025,0.4783,0.4789,0.4749,0.4931,0.4928,0.4926,0.4925,0.4924,0.3709,0.3696,0.3791,0.3849,0.4023,0.4086,0.4422,0.4752,0.499,0.5089,0.4984,0.5059,0.5048,0.503,0.4997,0.5233,0.5233,0.5233,0.5233,0.3724,0.3754,0.3781,0.381,0.3902,0.401,0.4174,0.4521,0.4878,0.4979,0.5051,0.4878,0.487,0.4838,0.4824,0.4783,0.4961,0.496,0.496,0.3774,0.3767,0.3732,0.3738,0.379,0.3877,0.3916,0.4149,0.4666,0.4939,0.4921,0.4933,0.4662,0.4658,0.4583,0.4573,0.4496,0,0]},{"header":{"parameterUnit":"m.s-1","parameterCategory":2,"la1":30.2992,"la2":30.254,"lo1":-89.0895,"lo2":-89.0443,"dy":0.0025,"dx":0.0025,"nx":19,"ny":19,"refTime":"2026-05-16T03:00:00:Z","depth":"0","parameterNumber":3,"parameterNumberName":"V-component_of_CURRENTS"},"data":[0,0,0,0.02,0.0198,0.0117,0.0116,-0.0029,-0.003,0,0,0,0,0,0,0,0,0,0,0,0.0229,0.0229,0.02,0.0198,0.0117,0.0116,-0.0029,-0.003,0,0,0,0,0,0,0,0,0,0,0,0.0229,0.0229,0.0229,0.0198,0.0117,0.0116,-0.0029,0.0038,0,0,0,0,0,0,0,0,0,0,0.0121,0.0166,0.0229,0.0229,0.0198,0.0117,0.0116,0.0042,0.0034,0.0003,0,0.0005,0,-0.0009,-0.0039,-0.004,0,0,0,0.0178,0.0173,0.0149,0.0229,0.0197,0.0117,0.0148,0.0038,0.0029,-0.0008,0.0003,-0.0002,-0.0011,-0.004,-0.0041,0.0068,0.007,0,0,0.0183,0.0209,0.0156,0.0145,0.0194,0.0151,0.0146,0.0033,0.0031,0.0002,-0.0006,-0.0014,-0.0041,-0.0042,0.0066,0.0069,0,0,0,0.0209,0.0212,0.0191,0.015,0.0143,0.0149,0.0143,0.0036,0.003,-0.0007,-0.0015,-0.0042,-0.0043,0.0064,0.0067,0.0336,0,0,0,0.0211,0.0229,0.0194,0.0208,0.0146,0.0096,0.0149,0.0037,0.0024,-0.0015,-0.0042,-0.0045,0.0061,0.0065,0.0323,0.0516,0,0,0,0.0229,0.023,0.0227,0.0209,0.0183,0.0097,0.0083,0.0034,0.002,-0.004,-0.0045,0.006,0.0065,0.0312,0.0494,0.0657,0,0,0,0.0249,0.0287,0.0228,0.0266,0.0184,0.0209,0.0084,0.0065,0.0027,-0.0042,0.0061,0.0067,0.0309,0.0481,0.0644,0.0706,0.0773,0,0,0.0315,0.0295,0.0319,0.0266,0.0348,0.0218,0.033,0.0206,0.0103,0.0085,0.0087,0.0328,0.0492,0.0654,0.1004,0.1063,0,0,0,0.0353,0.0392,0.0398,0.0429,0.0404,0.0483,0.0349,0.0344,0.0358,0.0108,0.0358,0.0455,0.0547,0.0557,0.0605,0.0253,0.0091,0.009,0.009,0.0494,0.0497,0.0598,0.0624,0.0656,0.0657,0.0729,0.0714,0.0523,0.0606,0.0693,0.104,0.1054,0.109,0.0728,0.0674,0.0675,0.0676,0.0677,0.068,0.079,0.0806,0.0919,0.0983,0.1082,0.1141,0.1081,0.1209,0.1001,0.1073,0.0867,0.1158,0.0752,0.0695,0.0692,0.0689,0.0688,0.0686,0.0824,0.0909,0.095,0.1158,0.1356,0.1402,0.1671,0.1635,0.1525,0.1624,0.1547,0.1541,0.1165,0.1613,0.1615,0.1616,0.1618,0.1619,0.162,0.1015,0.1074,0.1244,0.1435,0.1594,0.1834,0.1999,0.2082,0.2062,0.1923,0.192,0.1272,0.1325,0.1267,0.1645,0.1641,0.1637,0.1635,0.1633,0.1308,0.1298,0.1541,0.1694,0.2039,0.2315,0.2436,0.2574,0.2593,0.2589,0.1811,0.2049,0.1976,0.1933,0.189,0.2408,0.2408,0.2408,0.2408,0.1504,0.1516,0.1802,0.2031,0.2348,0.2539,0.2889,0.2954,0.2513,0.2179,0.193,0.1648,0.1632,0.1516,0.1483,0.142,0.1807,0.1806,0.1804,0.1733,0.1761,0.1963,0.2114,0.2456,0.2752,0.3063,0.3205,0.241,0.1735,0.1442,0.1468,0.0992,0.0995,0.0746,0.0728,0.0598,0,0]}],[{"header":{"parameterUnit":"m.s-1","parameterCategory":2,"la1":30.2992,"la2":30.254,"lo1":-89.0895,"lo2":-89.0443,"dy":0.0025,"dx":0.0025,"nx":19,"ny":19,"refTime":"2026-05-16T03:00:00:Z","depth":"2","parameterNumber":2,"parameterNumberName":"U-component_of_CURRENTS"},"data":[0,0,0,0.303,0.3034,0.323,0.3231,0.3505,0.3507,0,0,0,0,0,0,0,0,0,0,0,0.296,0.2961,0.303,0.3035,0.323,0.3231,0.3504,0.3507,0,0,0,0,0,0,0,0,0,0,0,0.2959,0.2961,0.2962,0.3036,0.323,0.3231,0.3504,0.3351,0,0,0,0,0,0,0,0,0,0,0.3159,0.3105,0.296,0.2962,0.3037,0.323,0.3231,0.3344,0.3361,0.3421,0,0.3451,0,0.3487,0.3526,0.3527,0,0,0,0.304,0.3091,0.3128,0.2962,0.3038,0.3229,0.3143,0.3353,0.3373,0.3444,0.3455,0.3465,0.3492,0.3527,0.3529,0.3788,0.3788,0,0,0.3029,0.3015,0.3114,0.314,0.3091,0.3137,0.3149,0.3365,0.3396,0.3456,0.3472,0.3496,0.3529,0.3531,0.3787,0.3788,0,0,0,0.2995,0.3008,0.3039,0.3128,0.3164,0.3143,0.3157,0.3386,0.3392,0.3475,0.35,0.3531,0.3534,0.3786,0.3787,0.3854,0,0,0,0.2988,0.2987,0.3034,0.3031,0.3159,0.3279,0.3174,0.3377,0.3403,0.3498,0.3531,0.3537,0.3785,0.3787,0.385,0.3942,0,0,0,0.295,0.2984,0.3002,0.3029,0.311,0.3276,0.3296,0.3383,0.3418,0.3527,0.3538,0.3784,0.3786,0.3847,0.3934,0.404,0,0,0,0.2934,0.2973,0.3002,0.3081,0.3108,0.324,0.3295,0.3403,0.3491,0.3532,0.3785,0.3787,0.3846,0.393,0.4035,0.3807,0.3814,0,0,0.2965,0.2977,0.3026,0.3056,0.3167,0.3213,0.3374,0.3496,0.3543,0.3715,0.3722,0.3851,0.3934,0.4039,0.3913,0.3917,0,0,0,0.3025,0.305,0.31,0.3175,0.3267,0.34,0.3487,0.3565,0.3724,0.3606,0.387,0.3922,0.3986,0.3836,0.384,0.3796,0.3796,0.3795,0.3795,0.3028,0.3081,0.3177,0.3262,0.3368,0.3522,0.3669,0.3792,0.3787,0.3862,0.3987,0.4137,0.3975,0.3976,0.3967,0.3967,0.3967,0.3967,0.3968,0.3077,0.3144,0.3239,0.3363,0.3503,0.3656,0.3879,0.3924,0.4161,0.4085,0.4141,0.3927,0.3984,0.3973,0.3972,0.3971,0.3971,0.397,0.397,0.3079,0.3123,0.3206,0.3376,0.3569,0.3758,0.3989,0.4152,0.4263,0.4364,0.4188,0.4183,0.4213,0.4361,0.4362,0.4363,0.4364,0.4364,0.4365,0.3065,0.3132,0.3254,0.3409,0.354,0.3763,0.4046,0.4208,0.4308,0.4305,0.4301,0.4272,0.4259,0.4238,0.4378,0.4376,0.4374,0.4373,0.4372,0.3093,0.3111,0.3264,0.3379,0.3603,0.3588,0.3873,0.4031,0.4225,0.4243,0.4271,0.4269,0.4246,0.4237,0.4216,0.4345,0.4345,0.4345,0.4345,0.3094,0.312,0.3301,0.343,0.3513,0.3533,0.341,0.352,0.382,0.3893,0.3913,0.3704,0.3715,0.3653,0.3657,0.362,0.3594,0.3592,0.3591,0.3121,0.3181,0.3281,0.3403,0.3451,0.3341,0.3038,0.2907,0.3202,0.3561,0.3773,0.4296,0.4032,0.4033,0.3966,0.3963,0.3915,0,0]},{"header":{"parameterUnit":"m.s-1","parameterCategory":2,"la1":30.2992,"la2":30.254,"lo1":-89.0895,"lo2":-89.0443,"dy":0.0025,"dx":0.0025,"nx":19,"ny":19,"refTime":"2026-05-16T03:00:00:Z","depth":"2","parameterNumber":3,"parameterNumberName":"V-component_of_CURRENTS"},"data":[0,0,0,0.0055,0.0054,-0.0011,-0.0012,-0.0157,-0.0158,0,0,0,0,0,0,0,0,0,0,0,0.0078,0.0078,0.0055,0.0054,-0.0011,-0.0012,-0.0157,-0.0158,0,0,0,0,0,0,0,0,0,0,0,0.0078,0.0078,0.0078,0.0054,-0.0011,-0.0012,-0.0157,-0.0096,0,0,0,0,0,0,0,0,0,0,-0.0027,0.0011,0.0078,0.0078,0.0053,-0.0011,-0.0012,-0.0093,-0.01,-0.014,0,-0.0136,0,-0.0145,-0.0168,-0.0168,0,0,0,0.0036,0.0017,0.0001,0.0078,0.0053,-0.0011,0.0013,-0.0097,-0.0105,-0.015,-0.0138,-0.0143,-0.0148,-0.0169,-0.0169,-0.0148,-0.0147,0,0,0.004,0.0057,0.0007,-0.0003,0.0052,0.0015,0.0011,-0.0101,-0.0105,-0.0139,-0.0147,-0.015,-0.017,-0.0171,-0.0149,-0.0148,0,0,0,0.0062,0.006,0.0048,0.0002,-0.0001,0.0014,0.0009,-0.01,-0.0103,-0.0148,-0.0152,-0.0171,-0.0172,-0.0151,-0.0149,0.0008,0,0,0,0.0063,0.0074,0.005,0.0058,0.0002,-0.0042,0.0013,-0.0096,-0.0108,-0.0151,-0.0171,-0.0174,-0.0152,-0.015,0.0,0.0125,0,0,0,0.0078,0.0075,0.0074,0.006,0.004,-0.004,-0.0051,-0.0098,-0.011,-0.0168,-0.0174,-0.0153,-0.015,-0.0006,0.0112,0.02,0,0,0,0.0089,0.012,0.0074,0.0108,0.0041,0.0056,-0.005,-0.0066,-0.0103,-0.0171,-0.0152,-0.0149,-0.0008,0.0104,0.0192,0.0145,0.0178,0,0,0.0141,0.0126,0.0149,0.0108,0.016,0.0063,0.0119,0.0014,-0.0068,-0.0127,-0.0127,0.0003,0.0111,0.0198,0.0324,0.0352,0,0,0,0.0174,0.0199,0.0204,0.022,0.0202,0.022,0.0122,0.0092,0.0056,-0.0074,0.0022,0.0087,0.0136,0.0091,0.0114,-0.0134,-0.0135,-0.0135,-0.0135,0.0269,0.027,0.0332,0.034,0.0357,0.0323,0.0341,0.0288,0.0162,0.019,0.0226,0.0426,0.038,0.0397,0.0209,0.0209,0.021,0.021,0.0211,0.0382,0.0429,0.0449,0.0524,0.0537,0.0586,0.0554,0.0496,0.0535,0.0401,0.0437,0.0275,0.0431,0.0224,0.0221,0.0219,0.0218,0.0217,0.0216,0.0451,0.0483,0.0534,0.0652,0.0756,0.0761,0.087,0.0821,0.072,0.0777,0.0671,0.0666,0.0527,0.0765,0.0766,0.0767,0.0768,0.0768,0.0769,0.0509,0.0558,0.0647,0.0784,0.0888,0.102,0.1048,0.1077,0.1007,0.0893,0.089,0.0613,0.0595,0.056,0.0784,0.0781,0.0779,0.0778,0.0777,0.0566,0.058,0.0707,0.0816,0.1038,0.1257,0.126,0.1273,0.1237,0.1229,0.0933,0.0924,0.0874,0.0852,0.0822,0.1102,0.1102,0.1102,0.1102,0.0561,0.0595,0.0705,0.0854,0.1086,0.1315,0.1466,0.1418,0.127,0.1125,0.1124,0.097,0.0956,0.09,0.0876,0.0843,0.1129,0.1129,0.1129,0.0541,0.0583,0.0633,0.0786,0.1081,0.1373,0.1609,0.1569,0.1268,0.1132,0.1146,0.11,0.086,0.0844,0.0736,0.0708,0.0644,0,0]}],[{"header":{"parameterUnit":"m.s-1","parameterCategory":2,"la1":30.2992,"la2":30.254,"lo1":-89.0895,"lo2":-89.0443,"dy":0.0025,"dx":0.0025,"nx":19,"ny":19,"refTime":"2026-05-16T03:00:00:Z","depth":"4","parameterNumber":2,"parameterNumberName":"U-component_of_CURRENTS"},"data":[0,0,0,0.1864,0.1868,0.2038,0.2039,0.2197,0.2198,0,0,0,0,0,0,0,0,0,0,0,0.1802,0.1803,0.1864,0.1868,0.2038,0.2039,0.2197,0.2198,0,0,0,0,0,0,0,0,0,0,0,0.1801,0.1803,0.1804,0.1869,0.2038,0.2039,0.2197,0.2082,0,0,0,0,0,0,0,0,0,0,0.1923,0.188,0.1802,0.1804,0.187,0.2038,0.2039,0.2077,0.2089,0.2105,0,0.214,0,0.2177,0.2208,0.2209,0,0,0,0.1862,0.187,0.1915,0.1804,0.1872,0.2037,0.196,0.2084,0.2097,0.2121,0.2143,0.2149,0.218,0.2209,0.221,0.2421,0.2422,0,0,0.1853,0.1833,0.1905,0.1923,0.1927,0.1954,0.1965,0.2093,0.2111,0.2143,0.2154,0.2183,0.221,0.2211,0.242,0.2421,0,0,0,0.183,0.1826,0.1869,0.1916,0.1955,0.1959,0.1972,0.2105,0.212,0.2156,0.2185,0.2211,0.2213,0.2419,0.242,0.2523,0,0,0,0.1824,0.1814,0.1864,0.1854,0.1953,0.2042,0.1981,0.211,0.2127,0.2184,0.2211,0.2214,0.2417,0.242,0.2517,0.2543,0,0,0,0.1792,0.181,0.1833,0.1853,0.193,0.2041,0.2063,0.2115,0.2144,0.2209,0.2215,0.2416,0.2419,0.2512,0.2535,0.2606,0,0,0,0.176,0.1792,0.1832,0.1879,0.1928,0.2041,0.2063,0.216,0.2219,0.2212,0.2417,0.242,0.251,0.253,0.2601,0.2212,0,0,0,0.1773,0.1793,0.1817,0.1858,0.1958,0.2017,0.2157,0.2244,0.2269,0.2367,0.2372,0.2519,0.2535,0.2605,0.2386,0,0,0,0,0.1803,0.1829,0.1863,0.1938,0.2024,0.216,0.225,0.2311,0.2447,0.2321,0.2549,0.2556,0.2597,0.2357,0.2434,0.2434,0.2434,0.2433,0.2433,0.1792,0.1845,0.1912,0.2007,0.21,0.2276,0.239,0.2502,0.2511,0.2602,0.2663,0.2815,0.2569,0.2698,0.2699,0.2699,0.27,0.27,0.27,0.1816,0.1838,0.1961,0.2052,0.2208,0.2354,0.2566,0.2636,0.2816,0.2781,0.2817,0.251,0.2711,0.2709,0.2707,0.2706,0.2705,0.2704,0.2704,0.1783,0.1797,0.1895,0.2044,0.2231,0.2424,0.2585,0.2767,0.29,0.298,0.2727,0.2889,0.2853,0.3014,0.3015,0.3015,0.3016,0.3016,0.3017,0.1683,0.1778,0.1834,0.2025,0.211,0.2314,0.2606,0.2696,0.2883,0.2798,0.302,0.2921,0.2911,0.2871,0.3024,0.3023,0.3022,0.3021,0.302,0.1557,0.1621,0.1674,0.1748,0.1953,0.2082,0.2395,0.2534,0.2623,0.2624,0.2693,0.2707,0.2629,0.2626,0.2573,0.2643,0.2638,0.2634,0,0.1423,0.1477,0.1487,0.1541,0.1656,0.1912,0.1971,0.2154,0.2351,0.2295,0.2618,0.269,0.2699,0.2603,0.2594,0.2525,0,0,0,0.1291,0.1318,0.1267,0.1384,0.1487,0.1714,0.1986,0.1976,0.2348,0.2294,0.2522,0.2552,0.2738,0.3046,0.296,0.2948,0.288,0,0]},{"header":{"parameterUnit":"m.s-1","parameterCategory":2,"la1":30.2992,"la2":30.254,"lo1":-89.0895,"lo2":-89.0443,"dy":0.0025,"dx":0.0025,"nx":19,"ny":19,"refTime":"2026-05-16T03:00:00:Z","depth":"4","parameterNumber":3,"parameterNumberName":"V-component_of_CURRENTS"},"data":[0,0,0,0.0062,0.0062,0.0032,0.0032,-0.0064,-0.0065,0,0,0,0,0,0,0,0,0,0,0,0.0071,0.0071,0.0062,0.0062,0.0032,0.0032,-0.0064,-0.0065,0,0,0,0,0,0,0,0,0,0,0,0.0071,0.0071,0.0071,0.0061,0.0032,0.0032,-0.0064,-0.0029,0,0,0,0,0,0,0,0,0,0,0.0006,0.0028,0.0071,0.0071,0.0061,0.0032,0.0032,-0.0027,-0.0031,-0.0064,0,-0.0061,0,-0.0062,-0.0072,-0.0072,0,0,0,0.0052,0.0031,0.0024,0.0071,0.0061,0.0032,0.0043,-0.0029,-0.0034,-0.007,-0.0062,-0.0066,-0.0064,-0.0072,-0.0073,-0.0119,-0.0118,0,0,0.0053,0.0061,0.0028,0.0021,0.0061,0.0044,0.0042,-0.0032,-0.0035,-0.0063,-0.0068,-0.0065,-0.0073,-0.0074,-0.0119,-0.0119,0,0,0,0.0065,0.0062,0.0057,0.0024,0.0026,0.0043,0.0041,-0.0032,-0.0033,-0.0069,-0.0067,-0.0074,-0.0075,-0.0119,-0.0119,-0.005,0,0,0,0.0065,0.0069,0.0058,0.0062,0.0028,0.0005,0.0042,-0.0028,-0.0036,-0.0066,-0.0074,-0.0076,-0.012,-0.0119,-0.0052,-0.0011,0,0,0,0.0071,0.007,0.007,0.0062,0.0054,0.0006,0.0001,-0.003,-0.0035,-0.0072,-0.0076,-0.012,-0.0119,-0.0054,-0.0016,-0.0016,0,0,0,0.0075,0.0096,0.007,0.0095,0.0055,0.0064,0.0001,-0.0002,-0.0025,-0.0074,-0.012,-0.0119,-0.0055,-0.0019,-0.0018,0.0068,0,0,0,0.0109,0.01,0.0118,0.0094,0.0125,0.0067,0.0078,0.002,-0.0032,-0.0102,-0.0103,-0.0051,-0.0016,-0.0017,0.0103,0,0,0,0,0.0134,0.0146,0.0152,0.016,0.0151,0.0133,0.0079,0.0039,-0.0015,-0.0042,-0.0058,-0.0038,-0.0041,0.0003,-0.0116,-0.0116,-0.0116,-0.0116,-0.0116,0.0179,0.0183,0.0215,0.0216,0.0217,0.0174,0.0148,0.0079,0.0027,0.0014,0.0013,0.0055,0.0105,-0.0,-0.0,0.0,0.0,0.0001,0.0001,0.0231,0.0242,0.0256,0.0288,0.0269,0.0267,0.0197,0.0156,0.0099,0.0059,0.0052,0.0068,0.0008,0.0006,0.0005,0.0004,0.0004,0.0003,0.0003,0.0245,0.025,0.0282,0.0326,0.035,0.0326,0.0341,0.0261,0.0172,0.017,0.0187,0.0092,0.0091,0.0161,0.0161,0.0161,0.0161,0.0161,0.0161,0.023,0.0266,0.031,0.036,0.0409,0.0448,0.042,0.0396,0.0299,0.0281,0.0191,0.0108,0.0103,0.0099,0.0164,0.0164,0.0164,0.0163,0.0163,0.0226,0.0249,0.034,0.0397,0.0522,0.0564,0.0545,0.0506,0.0476,0.0422,0.0317,0.0308,0.0285,0.0275,0.0276,0.0397,0.0398,0.04,0,0.0219,0.0231,0.0391,0.0518,0.0634,0.0653,0.069,0.0655,0.0513,0.0517,0.044,0.0323,0.0316,0.029,0.0283,0.0286,0,0,0,0.0222,0.029,0.0418,0.0568,0.0709,0.0734,0.0716,0.0701,0.054,0.0532,0.0434,0.0425,0.0306,0.0173,0.0117,0.011,0.01,0,0]}]]